Location: Luz Observatory
(34.5000°N, 117.2833°W)
Time: 09:04:34
(UTC-07:00)

HST - Visible Passes

Search period start: 29 August 2014 00:00
Search period end: 08 September 2014 00:00
Orbit: 547 x 551 km, 28.5° (Epoch: 29 August)

Date Brightness Start Highest point End Pass type
(mag) Time Alt. Az. Time Alt. Az. Time Alt. Az.
29 Aug 2.5 05:22:03 15° SW 05:23:13 17° SSW 05:25:53 10° SSE visible
30 Aug 2.8 05:16:01 13° SSW 05:16:10 13° SSW 05:18:10 10° S visible
04 Sep 2.8 20:07:20 10° S 20:09:13 13° SSE 20:09:53 12° SSE visible
05 Sep 2.6 19:59:33 10° SSW 20:02:09 16° SSE 20:03:38 14° SE visible
06 Sep 2.4 19:52:03 10° SSW 19:55:05 20° SSE 19:57:17 14° SE visible
06 Sep 3.4 21:32:17 10° WSW 21:32:52 13° WSW 21:32:52 13° WSW visible
07 Sep 2.2 19:44:42 10° SW 19:48:02 23° SSE 19:50:51 13° ESE visible
07 Sep 3.1 21:25:14 10° WSW 21:26:25 17° SW 21:26:25 17° SW visible
